Location: Hiram
(41.3130°N, 81.1440°W)
Time: 11:13:27
(UTC-05:00)

Daily predictions for brighter satellites

Satellite Brightness Start Highest point End
(mag) Time Altitude Azimuth Time Altitude Azimuth Time Altitude Azimuth
Thor Agena Rocket 3.6 17:48:00 10° NNE 17:53:13 63° ESE 17:58:18 10° S
Cosmos 1500 Rocket 3.5 17:50:32 10° S 17:54:51 75° E 17:59:13 10° NNE
SPOT 3 Rocket 3.5 17:51:02 10° SSE 17:56:10 78° ENE 18:01:21 10° N
Cosmos 2058 3.5 17:54:13 10° SSE 17:57:58 35° E 18:01:43 10° NNE
Cosmos 1461 3.9 17:56:52 10° S 18:00:31 29° ESE 18:04:04 10° NE
NOSS 0 Rocket 4.0 17:55:00 10° SSW 18:01:14 87° ESE 18:07:30 10° NNE
Cosmos 371 Rocket 3.6 17:57:54 10° SSW 18:02:41 70° WNW 18:07:30 10° NNE
SMAP 3.3 17:59:27 10° S 18:04:06 77° WSW 18:08:47 10° NNW
CZ-4 R/B 4.4 18:02:02 10° SSE 18:06:10 75° ENE 18:10:18 10° N
MONITOR-E 4.3 18:07:05 10° SSE 18:10:11 56° ENE 18:13:18 10° N
Cosmos 1633 Rocket 4.5 18:09:17 10° SE 18:12:19 18° E 18:15:21 10° NE
Cosmos 1980 3.9 18:10:55 10° SSW 18:16:35 77° WNW 18:22:18 10° NNE
Abrixas 2.7 18:14:06 10° WSW 18:16:59 61° NNW 18:19:25 14° NE
Cosmos 1634 Rocket 4.2 18:10:56 10° N 18:17:08 80° W 18:23:16 10° S
Cosmos 1356 Rocket 4.3 18:15:32 10° SSE 18:18:50 26° E 18:22:10 10° NE
IDEFIX/ARIANE 42P 3.8 18:15:56 10° S 18:20:57 47° W 18:26:01 10° NNW
Meteor 1-11 4.2 18:16:13 10° S 18:21:52 72° E 18:27:37 10° NNE
Lacrosse 5 rocket 1.3 18:21:00 10° NW 18:24:47 75° SW 18:28:45 10° SE
Aureole 2 Rocket 2.7 18:23:25 10° SSW 18:27:10 84° WNW 18:31:15 10° NNE
FREGAT/IRIS 4.0 18:25:17 10° ESE 18:27:34 19° ENE 18:29:51 10° NNE
MSX 4.4 18:24:11 10° S 18:29:49 63° WSW 18:35:31 10° NNW
BREEZE-M DEB (TANK) 1.8 18:29:12 10° SW 18:31:40 68° SE 18:33:02 22° ENE
Cosmos 372 Rocket 4.2 18:27:11 10° NNW 18:32:17 74° WSW 18:37:21 10° S
Cosmos 1626 2.6 18:30:41 10° SSE 18:34:11 39° E 18:37:41 10° NNE
Cosmos 2219 Rocket 3.6 18:30:18 10° SW 18:35:28 36° WNW 18:40:39 10° N
OTV 4 3.6 18:35:08 10° SW 18:35:55 11° SSW 18:36:41 10° SSW
Timation 1 Rocket 4.3 18:30:11 10° NNW 18:36:14 77° ENE 18:42:14 10° SSE
Cosmos 1707 Rocket 3.7 18:32:34 10° N 18:36:47 48° E 18:40:58 10° SSE
YAOGAN 1 4.2 18:32:47 10° SSW 18:36:47 37° W 18:40:50 10° NNW
Cosmos 540 Rocket 4.2 18:32:10 10° SW 18:37:13 54° WNW 18:42:18 10° N
COSMO-SKYMED 1 2.5 18:33:26 10° NNE 18:37:49 89° SSE 18:42:09 10° SSW
Cosmos 2333 Rocket 3.3 18:32:49 10° SW 18:38:11 44° WNW 18:43:35 10° NNE
Cosmos 304 Rocket 3.7 18:34:14 10° SSW 18:39:02 80° ESE 18:43:51 10° NNE
BREEZE M DEB (TANK) 1.0 18:37:33 10° NW 18:40:09 65° NNE 18:40:57 32° ESE
USA 215 3.4 18:37:34 11° ESE 18:43:42 53° NNE 18:50:02 10° NW
Cosmos 2151 4.1 18:41:28 10° SSW 18:45:29 44° WNW 18:49:31 10° N
CZ-4 R/B 4.5 18:44:04 10° SW 18:46:45 18° W 18:49:27 10° NW
Cosmos 1666 Rocket 3.6 18:43:03 10° S 18:47:16 53° E 18:51:33 10° NNE
Cosmos 2278 Rocket 3.4 18:42:39 10° NW 18:48:03 45° WSW 18:53:25 10° S
Cosmos 1726 4.2 18:45:41 10° NNW 18:49:02 30° W 18:52:22 10° SSW
Resurs 01 Rocket 2.5 18:49:20 22° ESE 18:51:01 28° ENE 18:54:48 10° N
Cosmos 1455 2.3 18:47:26 10° N 18:51:09 50° E 18:54:51 10° SSE
Cosmos 1703 3.2 18:49:52 10° S 18:53:45 84° W 18:57:40 10° N
SJ-6B 3.0 18:49:52 10° SSE 18:53:50 54° ENE 18:57:54 10° N
Lacrosse 5 3.9 18:54:55 10° NNW 18:57:23 13° N 18:59:05 12° NNE
Cosmos 1900 4.4 18:57:28 10° NNW 19:02:26 79° WSW 19:07:27 10° SSE
Tiangong 1 3.5 19:02:16 10° S 19:02:54 12° SSE 19:02:54 12° SSE
Cosmos 2237 Rocket 3.8 19:07:21 10° WSW 19:12:18 31° NW 19:17:17 10° N
Cosmos 2369 Rocket 3.5 19:11:54 10° N 19:15:08 22° NNE 19:15:08 22° NNE
Lacrosse 4 Rocket 1.4 19:14:47 10° NNW 19:18:28 54° NE 19:18:28 54° NE
SL-16 R/B 2.7 19:14:09 10° SW 19:19:43 59° WNW 19:24:59 12° NNE
Cosmos 1470 Rocket 4.0 19:16:03 10° SSE 19:19:23 42° SE 19:19:23 42° SE
Cosmos 2242 Rocket 3.4 19:18:39 10° N 19:23:05 80° E 19:27:32 10° S
Nadezhda 4 Rocket 4.1 19:17:54 10° S 19:24:08 78° W 19:30:30 10° N
ALOS 2.1 19:19:37 10° SSE 19:24:14 67° ENE 19:28:53 10° N
USA 229 DEB 3.6 19:19:22 10° SSW 19:26:11 75° ESE 19:29:43 31° NE
USA 229 3.6 19:19:28 10° SSW 19:26:17 75° ESE 19:29:46 32° NE
Spot 2 Rocket 3.4 19:21:20 10° SSE 19:26:18 64° ENE 19:31:18 10° N
Cosmos 1184 Rocket 3.6 19:23:38 10° SSW 19:26:54 51° WNW 19:27:44 40° NNW
Cosmos 2026 Rocket 4.1 19:22:15 10° SSE 19:28:07 46° E 19:29:03 43° ENE
Cosmos 292 Rocket 3.7 19:30:47 10° S 19:35:12 66° SE 19:35:12 66° SE
Iridium 4 Rocket 3.1 19:31:46 10° S 19:36:16 80° W 19:38:16 31° N
Cosmos 1869 3.5 19:32:30 10° NNW 19:36:33 73° W 19:40:33 10° S
Sich 1 4.4 19:36:39 10° SSW 19:40:49 40° WNW 19:45:02 10° N
Cosmos 1092 Rocket 4.2 19:39:14 10° SSW 19:45:33 74° W 19:51:55 10° N
FENGYUN 3A 3.7 19:44:09 10° S 19:49:29 75° WSW 19:54:53 10° NNW
Cosmos 923 Rocket 4.0 19:44:50 10° SSW 19:50:02 79° WNW 19:50:56 61° N
Meteor 2-20 4.5 19:44:22 10° S 19:49:31 57° SE 19:49:31 57° SE
Cosmos 1680 Rocket 3.5 19:51:40 10° SSW 19:56:19 72° SSW 19:56:19 72° SSW
ATLAS 5 CENTAUR R/B 4.0 20:03:13 10° NNW 20:05:22 20° N 20:05:22 20° N
NOSS 3-1 (C) 4.4 20:12:38 10° SSW 20:15:42 33° SSW 20:15:42 33° SSW
Cosmos 1603 4.4 20:19:03 10° SW 20:24:26 48° WNW 20:24:34 48° WNW
Cosmos 1943 Rocket 4.5 20:20:32 10° N 20:21:00 12° N 20:21:00 12° N
USA 215 3.9 20:24:57 40° S 20:26:43 49° SW 20:33:02 10° WNW
Resurs 01 Rocket 3.6 20:26:51 27° WSW 20:27:25 27° W 20:31:13 10° NW
CZ-4C R/B 4.3 20:33:01 10° NNW 20:35:48 23° N 20:35:48 23° N
Cosmos 2369 Rocket 4.3 20:55:21 10° NNW 20:56:59 19° NW 20:56:59 19° NW
